Date String (YYYY-MM-DD hh:mm:ss) UTC,Instrument flags,absolute air pressure of the measurement (hPa),sample flow rate (lpm),inlet stack bypass flow (lpm),air temperature of the measurement (°C),ambient temperature measured by the external sensor (°C),aerosol sample conditioner tube jacket temperature (°C),OPC LED temperature (°C),internal box temperature (°C),relative humidity of the measurement (%),span deviation,mass concentration of particles derived from Lorenz-Mie calculation of OPC scattering (μg/m³),mass concentration of particles derived from Lorenz-Mie calculation of OPC scattering (μg/m³),mass concentration of particles derived from Lorenz-Mie calculation of OPC scattering (μg/m³)
DateTimeUTC,F1_M11,P_M11,Q1_M11,Q2_M11,T1_M11,T2_M11,T3_M11,T4_M11,T5_M11,U1_M11,ZSPAN_M11,X0_M11,X2_M11,X1_M11
2023-06-20 19:00:00,SystemResetWarning,0828.7,4.99,000.00,030.0,028.0,000.0,038.5,031.3,22.4,0000.0,0015.91,0004.97,0003.65
2023-06-20 19:01:00,SystemResetWarning,0828.7,5.00,000.00,030.0,028.2,000.0,038.5,031.3,22.3,0000.0,0016.10,0004.97,0003.67
2023-06-20 19:02:00,SystemResetWarning,0828.7,5.00,000.00,030.1,028.3,000.0,038.5,031.4,19.7,0000.0,0016.54,0004.99,0003.68
2023-06-20 19:03:00,SystemResetWarning,0828.7,4.99,000.00,030.1,027.4,000.0,038.5,031.5,21.0,0000.0,0016.02,0004.98,0003.70
2023-06-20 19:04:00,SystemResetWarning,0828.7,5.00,000.00,030.1,025.8,000.0,038.4,031.4,21.1,0000.0,0015.58,0004.94,0003.71
2023-06-20 19:05:00,SystemResetWarning,0828.7,5.01,000.00,030.1,025.8,000.0,038.4,031.4,20.6,0000.0,0016.02,0004.96,0003.71
2023-06-20 19:06:00,SystemResetWarning,0828.7,4.99,000.00,030.0,026.0,000.0,038.4,031.1,23.0,0000.0,0015.55,0004.96,0003.73
2023-06-20 19:07:00,SystemResetWarning,0828.7,4.99,000.00,029.9,026.4,000.0,038.4,031.1,26.0,0000.0,0014.55,0004.89,0003.72
2023-06-20 19:08:00,SystemResetWarning,0828.7,4.99,000.00,029.9,026.8,000.0,038.4,031.1,25.9,0000.0,0014.96,0004.85,0003.71
2023-06-20 19:09:00,SystemResetWarning,0828.7,5.01,000.00,029.9,027.1,000.0,038.4,031.2,23.1,0000.0,0014.21,0004.84,0003.70
2023-06-20 19:10:00,SystemResetWarning,0828.8,5.01,000.00,029.9,027.4,000.0,038.4,031.2,23.4,0000.0,0013.93,0004.87,0003.71
2023-06-20 19:11:00,SystemResetWarning,0828.8,5.00,000.00,029.9,027.7,000.0,038.4,031.3,23.6,0000.0,0015.57,0004.96,0003.72
2023-06-20 19:12:00,SystemResetWarning,0828.8,5.00,000.00,030.0,027.9,000.0,038.4,031.3,24.4,0000.0,0016.35,0004.95,0003.70
2023-06-20 19:13:00,SystemResetWarning,0828.8,5.00,000.00,030.0,028.1,000.0,038.4,031.4,21.3,0000.0,0016.77,0004.88,0003.70
2023-06-20 19:14:00,SystemResetWarning,0828.8,4.99,000.00,030.0,027.6,000.0,038.4,031.4,21.2,0000.0,0016.81,0004.94,0003.71
2023-06-20 19:15:00,SystemResetWarning,0828.7,4.99,000.00,030.0,025.5,000.0,038.4,031.3,19.7,0000.0,0017.48,0005.02,0003.72
2023-06-20 19:16:00,SystemResetWarning,0828.7,5.01,000.00,029.9,024.4,000.0,038.3,031.2,20.2,0000.0,0018.25,0005.08,0003.73
2023-06-20 19:17:00,SystemResetWarning,0828.6,5.01,000.00,029.9,024.7,000.0,038.2,031.1,21.7,0000.0,0019.00,0005.15,0003.72
2023-06-20 19:18:00,SystemResetWarning,0828.6,4.99,000.00,029.7,025.2,000.0,038.2,030.9,18.8,0000.0,0019.52,0005.15,0003.73
2023-06-20 19:19:00,SystemResetWarning,0828.6,4.99,000.00,029.7,025.7,000.0,038.2,030.8,20.5,0000.0,0019.21,0005.23,0003.74
2023-06-20 19:20:00,SystemResetWarning,0828.6,5.00,000.00,029.7,026.2,000.0,038.2,030.8,23.0,0000.0,0018.62,0005.24,0003.74
2023-06-20 19:21:00,SystemResetWarning,0828.6,5.01,000.00,029.6,026.6,000.0,038.2,030.9,23.1,0000.0,0018.41,0005.24,0003.72
2023-06-20 19:22:00,SystemResetWarning,0828.6,5.00,000.00,029.7,026.9,000.0,038.2,030.9,24.0,0000.0,0017.55,0005.25,0003.72
2023-06-20 19:23:00,SystemResetWarning,0828.7,5.00,000.00,029.7,027.2,000.0,038.2,031.0,25.0,0000.0,0016.27,0005.30,0003.73
2023-06-20 19:24:00,SystemResetWarning,0828.7,5.00,000.00,029.7,027.5,000.0,038.2,031.0,25.4,0000.0,0015.62,0005.33,0003.75
2023-06-20 19:25:00,SystemResetWarning,0828.7,5.00,000.00,029.7,027.7,000.0,038.2,031.1,25.9,0000.0,0015.19,0005.33,0003.76
2023-06-20 19:26:00,SystemResetWarning,0828.7,5.00,000.00,029.7,027.9,000.0,038.2,031.1,26.4,0000.0,0015.65,0005.39,0003.79
2023-06-20 19:27:00,SystemResetWarning,0828.6,5.00,000.00,029.8,028.0,000.0,038.3,031.2,27.1,0000.0,0016.01,0005.42,0003.83
2023-06-20 19:28:00,SystemResetWarning,0828.6,5.00,000.00,029.8,028.2,000.0,038.3,031.3,29.5,0000.0,0015.67,0005.41,0003.86
2023-06-20 19:29:00,SystemResetWarning,0828.6,4.99,000.00,029.8,027.6,000.0,038.3,031.3,30.5,0000.0,0015.28,0005.52,0003.90
2023-06-20 19:30:00,SystemResetWarning,0828.6,5.00,000.00,029.8,025.4,000.0,038.2,031.2,30.4,0000.0,0015.45,0005.55,0003.96
2023-06-20 19:31:00,SystemResetWarning,0828.6,5.01,000.00,029.7,024.4,000.0,038.1,031.2,31.0,0000.0,0016.06,0005.59,0004.02
2023-06-20 19:32:00,SystemResetWarning,0828.6,5.01,000.00,029.7,024.7,000.0,038.1,031.0,30.0,0000.0,0016.27,0005.71,0004.09
2023-06-20 19:33:00,SystemResetWarning,0828.6,4.99,000.00,029.6,025.1,000.0,038.1,030.8,28.2,0000.0,0017.07,0005.70,0004.14
2023-06-20 19:34:00,SystemResetWarning,0828.6,5.00,000.00,029.5,025.6,000.0,038.1,030.8,28.8,0000.0,0017.62,0005.78,0004.21
2023-06-20 19:35:00,SystemResetWarning,0828.6,5.00,000.00,029.5,026.1,000.0,038.1,030.8,29.8,0000.0,0018.26,0005.92,0004.27
2023-06-20 19:36:00,SystemResetWarning,0828.6,5.00,000.00,029.5,026.5,000.0,038.1,030.8,30.9,0000.0,0018.69,0005.98,0004.32
2023-06-20 19:37:00,SystemResetWarning,0828.7,4.99,000.00,029.5,026.9,000.0,038.1,030.9,31.2,0000.0,0018.34,0005.93,0004.35
2023-06-20 19:38:00,SystemResetWarning,0828.7,5.01,000.00,029.5,027.2,000.0,038.1,030.9,30.4,0000.0,0017.33,0005.96,0004.38
2023-06-20 19:39:00,SystemResetWarning,0828.7,5.00,000.00,029.5,027.5,000.0,038.1,031.0,27.1,0000.0,0017.03,0006.00,0004.41
2023-06-20 19:40:00,SystemResetWarning,0828.8,5.01,000.00,029.6,027.7,000.0,038.1,031.1,30.0,0000.0,0017.06,0006.04,0004.45
2023-06-20 19:41:00,SystemResetWarning,0828.8,5.00,000.00,029.6,027.9,000.0,038.1,031.1,29.1,0000.0,0017.50,0006.03,0004.45
2023-06-20 19:42:00,SystemResetWarning,0828.8,4.99,000.00,029.6,028.0,000.0,038.1,031.2,30.1,0000.0,0017.31,0006.01,0004.44
2023-06-20 19:43:00,SystemResetWarning,0828.8,5.01,000.00,029.7,028.2,000.0,038.1,031.2,32.8,0000.0,0017.57,0006.01,0004.46
2023-06-20 19:44:00,SystemResetWarning,0828.7,5.01,000.00,029.7,028.3,000.0,038.2,031.3,32.2,0000.0,0016.46,0006.01,0004.46
2023-06-20 19:45:00,SystemResetWarning,0828.8,5.00,000.00,029.8,027.7,000.0,038.2,031.4,32.7,0000.0,0015.57,0006.00,0004.45
2023-06-20 19:46:00,SystemResetWarning,0828.7,4.99,000.00,029.7,025.5,000.0,038.1,031.2,31.4,0000.0,0016.17,0006.00,0004.47
2023-06-20 19:47:00,SystemResetWarning,0828.8,5.01,000.00,029.7,024.5,000.0,038.0,031.2,33.1,0000.0,0016.74,0006.09,0004.50
2023-06-20 19:48:00,SystemResetWarning,0828.8,5.01,000.00,029.6,024.6,000.0,038.0,030.9,32.9,0000.0,0017.49,0006.26,0004.56
2023-06-20 19:49:00,SystemResetWarning,0828.7,4.99,000.00,029.5,025.1,000.0,038.0,030.7,33.2,0000.0,0019.81,0006.31,0004.61
2023-06-20 19:50:00,SystemResetWarning,0828.7,5.00,000.00,029.4,025.6,000.0,038.0,030.7,33.8,0000.0,0020.14,0006.37,0004.67
2023-06-20 19:51:00,SystemResetWarning,0828.8,5.00,000.00,029.4,026.1,000.0,038.0,030.8,32.0,0000.0,0021.21,0006.37,0004.72
2023-06-20 19:52:00,SystemResetWarning,0828.7,5.00,000.00,029.4,026.5,000.0,038.0,030.8,30.0,0000.0,0021.91,0006.46,0004.78
2023-06-20 19:53:00,SystemResetWarning,0828.7,4.99,000.00,029.4,026.9,000.0,038.0,030.9,30.4,0000.0,0022.66,0006.63,0004.87
2023-06-20 19:54:00,SystemResetWarning,0828.7,5.00,000.00,029.4,027.2,000.0,038.0,030.9,28.9,0000.0,0023.72,0006.70,0004.91
2023-06-20 19:55:00,SystemResetWarning,0828.7,5.01,000.00,029.5,027.5,000.0,038.0,031.0,28.5,0000.0,0025.54,0006.77,0004.96
2023-06-20 19:56:00,SystemResetWarning,0828.7,5.01,000.00,029.5,027.7,000.0,038.0,031.1,27.7,0000.0,0026.83,0006.85,0005.00
2023-06-20 19:57:00,SystemResetWarning,0828.6,4.98,000.00,029.5,027.9,000.0,038.0,031.1,26.4,0000.0,0026.76,0006.89,0005.02
2023-06-20 19:58:00,SystemResetWarning,0828.6,5.00,000.00,029.6,028.1,000.0,038.1,031.2,27.0,0000.0,0026.39,0006.84,0005.01
2023-06-20 19:59:00,SystemResetWarning,0828.6,5.01,000.00,029.6,028.2,000.0,038.1,031.2,23.9,0000.0,0025.34,0006.72,0004.97
